Stations météo

réclame
Mon MeteoGroup
Isle Of Portland, Grande-Bretagne (3857): Température de l'air & dewpoint: 07.12.2019 01:00:00 - 13.12.2019 01:00:00 (GMT)Isle Of Portland, Grande-Bretagne (3857): Vitesse du vent & gusts: 07.12.2019 01:00:00 - 13.12.2019 01:00:00 (GMT)Isle Of Portland, Grande-Bretagne (3857): Direction du vent: 07.12.2019 01:00:00 - 13.12.2019 01:00:00 (GMT)Isle Of Portland, Grande-Bretagne (3857): reduced air pressure: 07.12.2019 01:00:00 - 13.12.2019 01:00:00 (GMT)Isle Of Portland, Grande-Bretagne (3857): visibility: 07.12.2019 01:00:00 - 13.12.2019 01:00:00 (GMT)Isle Of Portland, Grande-Bretagne (3857): Quantités de précipitations: 07.12.2019 01:00:00 - 13.12.2019 01:00:00 (GMT)
Date & Time tt [°C] td [°C] ff [km/h] ff [knt] fx [km/h] fx [knt] dd ppp [hPa] vv [km] rr [mm]
13.12.2019 01:00:00 8,5 4,0 70 38 93 50 WNW 975,4 12 0,0
13.12.2019 00:00:00 7,8 4,5 78 42 122 66 WNW 975,1 16 0,0
12.12.2019 23:00:00 10,1 5,9 63 34 83 45 WNW 974,8 10 0,0
12.12.2019 22:00:00 10,0 7,4 65 35 93 50 W 975,3 13 0,2
12.12.2019 21:00:00 10,1 9,5 44 24 59 32 W 977,1 5 1,0
12.12.2019 20:00:00 10,0 8,0 37 20 55 30 W 979,5 10 0,0
12.12.2019 19:00:00 10,0 7,7 41 22 59 32 W 980,8 8 0,0
12.12.2019 18:00:00 10,1 8,0 46 25 61 33 W 981,4 10 0,0
12.12.2019 17:00:00 9,6 7,6 48 26 72 39 W 981,7 12 0,0
12.12.2019 16:00:00 10,2 7,0 61 33 81 44 WNW 981,3 20 0,0
12.12.2019 15:00:00 10,0 8,0 55 30 72 39 WNW 981,3 20 0,2
12.12.2019 14:00:00 10,0 10,0 21 11 57 31 SSW 981,5 5 2,0
12.12.2019 13:00:00 9,8 9,3 37 20 61 33 S 983,6 4,9 1,0
12.12.2019 12:00:00 9,9 9,0 42 23 68 37 SSW 985,6 4,3 1,2
12.12.2019 11:00:00 10,4 9,5 42 23 65 35 SSW 988,0 6 0,4
12.12.2019 10:00:00 10,6 9,6 39 21 61 33 SW 989,7 8 0,0
12.12.2019 09:00:00 10,4 9,7 41 22 65 35 SW 991,3 10 0,8
12.12.2019 08:00:00 9,1 8,8 39 21 61 33 S 992,8 2,0 2,2
12.12.2019 07:00:00 8,9 7,8 35 19 57 31 S 995,3 11 0,2
12.12.2019 06:00:00 8,5 7,1 41 22 52 28 SSW 997,4 9 0,4
12.12.2019 05:00:00 7,9 5,9 35 19 48 26 SW 999,4 10 0,2
12.12.2019 04:00:00 8,2 4,0 26 14 - - SW 1001,0 14 0,0
12.12.2019 03:00:00 8,0 3,4 34 18 46 25 W 1002,5 13 0,0
12.12.2019 02:00:00 7,5 3,8 31 17 - - W 1003,7 12 0,0
12.12.2019 01:00:00 7,3 3,4 35 19 46 25 W 1004,4 15 0,0
12.12.2019 00:00:00 7,2 3,1 35 19 - - W 1005,1 23 0,0
11.12.2019 23:00:00 7,2 3,0 31 17 - - WNW 1005,3 20 0,0
11.12.2019 22:00:00 7,0 2,7 35 19 52 28 W 1005,4 23 0,0
11.12.2019 21:00:00 7,1 2,8 42 23 54 29 WNW 1005,0 21 0,0
11.12.2019 20:00:00 7,1 2,7 44 24 57 31 WNW 1004,8 29 0,0
11.12.2019 19:00:00 7,0 3,0 42 23 54 29 WNW 1004,4 16 0,0
11.12.2019 18:00:00 6,8 3,0 35 19 46 25 WNW 1004,1 22 0,0
11.12.2019 17:00:00 7,1 3,2 39 21 59 32 WNW 1003,5 24 0,0
11.12.2019 16:00:00 7,3 3,2 35 19 50 27 W 1002,9 30 0,0
11.12.2019 15:00:00 7,6 3,0 37 20 52 28 W 1002,4 30 0,0
11.12.2019 14:00:00 7,8 3,7 37 20 63 34 W 1002,4 15 0,0
11.12.2019 13:00:00 7,7 3,6 44 24 59 32 W 1002,4 16 0,0
11.12.2019 12:00:00 8,0 5,2 46 25 70 38 W 1003,1 11 2,2
11.12.2019 11:00:00 8,5 4,6 39 21 55 30 SW 1004,9 12 0,2
11.12.2019 10:00:00 7,5 4,6 34 18 59 32 WSW 1006,1 4,2 0,2
11.12.2019 09:00:00 7,1 3,2 54 29 76 41 WSW 1007,2 7 0,2
11.12.2019 08:00:00 8,6 4,1 35 19 54 29 WSW 1007,2 14 0,0
11.12.2019 07:00:00 8,7 4,4 29 16 - - W 1007,9 10 0,0
11.12.2019 06:00:00 8,7 4,2 37 20 - - W 1008,5 11 0,0
11.12.2019 05:00:00 8,8 4,5 37 20 48 26 W 1009,0 9 0,0
11.12.2019 04:00:00 8,7 4,7 37 20 50 27 W 1009,7 12 0,0
11.12.2019 03:00:00 8,6 4,7 39 21 52 28 W 1010,2 15 0,0
11.12.2019 02:00:00 8,9 4,4 35 19 50 27 W 1010,3 16 0,0
11.12.2019 01:00:00 8,9 4,7 35 19 50 27 W 1010,4 15 0,0
11.12.2019 00:00:00 8,9 4,2 41 22 55 30 W 1010,2 14 0,0
10.12.2019 23:00:00 9,2 5,3 42 23 59 32 W 1010,0 13 0,0
10.12.2019 22:00:00 9,5 4,6 46 25 61 33 WNW 1009,3 14 0,0
10.12.2019 21:00:00 9,6 6,5 42 23 59 32 W 1008,5 15 0,2
10.12.2019 20:00:00 9,4 6,9 46 25 76 41 W 1007,9 10 0,6
10.12.2019 19:00:00 9,5 7,9 57 31 89 48 WNW 1006,1 6 0,4
10.12.2019 18:00:00 11,9 11,7 59 32 83 45 SW 1005,4 4,1 0,2
10.12.2019 17:00:00 11,8 11,6 57 31 80 43 SSW 1006,0 5 0,2
10.12.2019 16:00:00 11,5 11,4 54 29 78 42 SSW 1007,4 3,2 0,0
10.12.2019 15:00:00 11,2 11,0 59 32 76 41 SSW 1008,8 4,4 0,2
10.12.2019 14:00:00 10,9 10,3 54 29 78 42 SSW 1010,3 1,6 0,0
10.12.2019 13:00:00 10,8 10,3 57 31 78 42 SSW 1011,5 3,0 0,2
10.12.2019 12:00:00 10,6 9,9 55 30 74 40 SSW 1012,9 2,7 0,0
10.12.2019 11:00:00 10,3 9,6 55 30 74 40 SSW 1015,0 5 0,4
10.12.2019 10:00:00 9,9 8,9 55 30 74 40 SSW 1016,2 4,1 1,0
10.12.2019 09:00:00 10,0 8,7 50 27 65 35 SSW 1017,7 8 0,8
10.12.2019 08:00:00 10,4 8,0 48 26 63 34 SSW 1018,4 10 0,0
10.12.2019 07:00:00 10,5 7,4 41 22 55 30 SSW 1019,8 11 0,0
10.12.2019 06:00:00 10,3 6,9 39 21 54 29 SSW 1020,7 11 0,0
10.12.2019 05:00:00 10,4 7,3 35 19 52 28 SSW 1021,9 11 0,0
10.12.2019 04:00:00 10,1 6,3 34 18 48 26 SW 1022,9 14 0,0
10.12.2019 03:00:00 9,7 5,6 31 17 - - SW 1024,2 15 0,0
10.12.2019 02:00:00 9,3 5,8 24 13 - - SW 1024,6 14 0,0
10.12.2019 01:00:00 8,6 4,9 22 12 - - SW 1025,2 15 0,0
10.12.2019 00:00:00 8,4 4,4 16 9 55 30 WSW 1026,1 14 0,0
09.12.2019 23:00:00 8,1 3,0 11 6 - - W 1026,0 13 0,0
09.12.2019 22:00:00 8,4 3,8 15 8 - - WNW 1026,2 13 0,0
09.12.2019 21:00:00 8,4 3,2 18 10 - - NW 1026,1 15 0,0
09.12.2019 20:00:00 8,6 3,5 24 13 - - NW 1025,6 13 0,0
09.12.2019 19:00:00 8,5 2,7 26 14 - - NW 1024,8 16 0,0
09.12.2019 18:00:00 8,9 2,7 34 18 48 26 NW 1024,0 17 0,0
09.12.2019 17:00:00 9,0 2,5 35 19 50 27 NW 1023,3 19 0,0
09.12.2019 16:00:00 9,1 3,0 37 20 57 31 NW 1021,9 14 0,0
09.12.2019 15:00:00 9,7 3,2 42 23 65 35 NW 1020,6 14 0,0
09.12.2019 14:00:00 10,1 3,5 48 26 67 36 NW 1018,8 13 0,0
09.12.2019 13:00:00 10,0 3,7 46 25 83 45 NW 1017,8 14 0,0
09.12.2019 12:00:00 10,3 3,7 50 27 72 39 NW 1016,3 17 0,0
09.12.2019 11:00:00 9,9 4,7 46 25 72 39 NW 1015,0 17 0,0
09.12.2019 10:00:00 9,7 5,3 50 27 78 42 NW 1012,9 13 0,0
09.12.2019 09:00:00 9,7 4,6 55 30 89 48 NW 1010,4 12 0,0
09.12.2019 08:00:00 9,4 5,1 59 32 91 49 NW 1007,5 11 0,0
09.12.2019 07:00:00 10,1 4,8 59 32 89 48 NW 1005,4 14 0,0
09.12.2019 06:00:00 10,2 5,5 65 35 96 52 NW 1002,3 11 0,0
09.12.2019 05:00:00 10,5 6,2 67 36 104 56 NW 999,8 9 0,0
09.12.2019 04:00:00 10,1 6,3 70 38 104 56 WNW 997,5 8 0,2
09.12.2019 03:00:00 9,5 6,2 81 44 106 57 WNW 996,7 6 0,8
09.12.2019 02:00:00 8,5 6,2 83 45 106 57 WNW 996,0 9 1,0
09.12.2019 01:00:00 10,1 5,3 72 39 96 52 W 995,9 10 0,0
09.12.2019 00:00:00 10,0 5,5 80 43 115 62 WNW 995,3 9 0,0
08.12.2019 23:00:00 10,0 6,8 80 43 115 62 W 994,5 9 0,0
08.12.2019 22:00:00 9,0 7,7 81 44 109 59 W 995,1 2,7 0,4
08.12.2019 21:00:00 9,0 5,9 54 29 104 56 W 997,9 8 0,2
08.12.2019 20:00:00 9,5 5,4 55 30 80 43 W 999,3 8 0,0
08.12.2019 19:00:00 8,9 4,3 61 33 81 44 W 1000,4 11 0,0
08.12.2019 18:00:00 6,8 5,3 68 37 98 53 W 1001,5 5 0,8
08.12.2019 17:00:00 9,4 4,2 65 35 85 46 W 1001,1 10 0,0
08.12.2019 16:00:00 8,7 4,9 65 35 89 48 W 1001,9 11 0,0
08.12.2019 15:00:00 8,2 5,0 67 36 89 48 W 1002,0 6 0,2
08.12.2019 14:00:00 9,5 6,2 70 38 89 48 W 1002,2 10 0,0
08.12.2019 13:00:00 9,8 6,4 50 27 76 41 W 1003,5 12 0,0
08.12.2019 12:00:00 10,5 6,4 54 29 70 38 W 1004,1 10 0,0
08.12.2019 11:00:00 10,6 5,8 54 29 76 41 W 1005,0 11 0,0
08.12.2019 10:00:00 10,7 6,4 54 29 78 42 W 1004,9 8 0,0
08.12.2019 09:00:00 10,4 6,8 48 26 68 37 W 1005,0 7 0,0
08.12.2019 08:00:00 10,7 7,0 50 27 72 39 W 1004,4 7 0,0
08.12.2019 07:00:00 11,1 7,5 50 27 70 38 W 1004,1 9 0,0
08.12.2019 06:00:00 11,5 6,8 50 27 74 40 W 1003,2 10 0,0
08.12.2019 05:00:00 11,9 7,5 52 28 72 39 W 1002,6 11 0,0
08.12.2019 04:00:00 12,1 12,0 59 32 78 42 WSW 1002,6 5 0,0
08.12.2019 03:00:00 11,9 11,7 57 31 78 42 WSW 1003,2 3,1 1,6
08.12.2019 02:00:00 11,3 11,1 54 29 78 42 SW 1004,6 2,2 2,6
08.12.2019 01:00:00 11,0 10,4 48 26 68 37 SW 1005,7 2,8 1,0
08.12.2019 00:00:00 11,4 9,6 50 27 68 37 SW 1006,9 8 0,0
07.12.2019 23:00:00 11,3 9,2 46 25 63 34 SW 1009,0 10 0,0
07.12.2019 22:00:00 11,4 9,2 46 25 59 32 SW 1010,5 11 0,0
07.12.2019 21:00:00 11,1 9,0 48 26 63 34 SW 1011,6 17 0,0
07.12.2019 20:00:00 10,9 9,3 42 23 52 28 SW 1012,6 11 0,0
07.12.2019 19:00:00 10,8 9,3 31 17 46 25 WSW 1013,2 13 0,0
07.12.2019 18:00:00 11,0 8,7 29 16 54 29 WSW 1014,0 19 0,0
07.12.2019 17:00:00 11,0 8,5 35 19 - - WSW 1014,3 17 0,0
07.12.2019 16:00:00 10,8 8,9 24 13 - - WSW 1014,6 17 0,0
07.12.2019 15:00:00 10,8 8,9 31 17 - - W 1014,8 13 0,0
07.12.2019 14:00:00 10,8 8,1 26 14 - - W 1014,9 20 0,0
07.12.2019 13:00:00 10,5 7,1 28 15 46 25 W 1015,3 21 0,0
07.12.2019 12:00:00 11,0 7,6 34 18 - - W 1015,7 21 0,0
07.12.2019 11:00:00 10,8 7,9 26 14 - - W 1016,2 12 0,0
07.12.2019 10:00:00 10,8 8,2 22 12 - - W 1016,1 14 0,0
07.12.2019 09:00:00 10,3 7,0 24 13 - - W 1016,4 20 0,0
07.12.2019 08:00:00 10,5 6,2 22 12 - - W 1015,9 30 0,0
07.12.2019 07:00:00 10,4 5,0 28 15 - - W 1015,3 29 0,0
07.12.2019 06:00:00 10,3 7,4 28 15 - - W 1014,8 18 0,0
07.12.2019 05:00:00 10,4 7,4 26 14 - - W 1014,3 20 0,0
07.12.2019 04:00:00 10,4 6,4 28 15 - - WNW 1013,8 25 0,0
07.12.2019 03:00:00 10,2 7,1 31 17 48 26 WNW 1013,5 15 0,0
07.12.2019 02:00:00 10,3 7,4 35 19 46 25 W 1012,9 20 0,0
07.12.2019 01:00:00 10,3 7,3 34 18 - - W 1012,6 14 0,0

tt = Température de l'air
td = dewpoint
ff = Vitesse du vent
fx = gusts
dd = Direction du vent
ppp = reduced air pressure
vv = visibility
rr = Quantités de précipitations

stations d'obs. à proximité